YD2APR-13 Weather Reports


time (UTC)temp
C
wind
direction
speed
KPH
gust
KPH
rain 1hr
cm
rain 24hr
cm
rain mn
cm
humidity
%
barometer
mb
20260509211019 23 0.0 0.0 0.00 0.00 0.00 91 1014.0
20260509210018 23 0.0 0.0 0.00 0.00 0.00 91 1013.9
20260509205018 26 0.0 0.0 0.00 0.00 0.00 91 996.6
20260509204021 26 0.0 0.0 0.00 0.00 0.00 92 996.7
20260509203018 26 0.0 0.0 0.00 0.00 0.00 92 996.8
20260509202018 26 0.0 0.0 0.00 0.00 0.00 91 996.7
20260509201020 26 0.0 0.0 0.00 0.00 0.00 91 996.7
20260509200018 23 0.0 0.0 0.00 0.00 0.00 91 1014.3
20260509195018 26 0.0 0.0 0.00 0.00 0.00 91 997.0
20260509194021 23 0.0 0.0 0.00 0.00 0.00 91 1014.4
20260509193018 23 0.0 0.0 0.00 0.00 0.00 92 1014.4
20260509192018 23 0.0 0.0 0.00 0.00 0.00 92 1014.5
20260509191018 23 0.0 0.0 0.00 0.00 0.00 91 1014.7
20260509190018 26 0.0 0.0 0.00 0.00 0.00 91 997.4
20260509185018 23 0.0 0.0 0.00 0.00 0.00 91 1014.9
20260509184018 23 0.0 0.0 0.00 0.00 0.00 91 1015.1
20260509183018 23 0.0 0.0 0.00 0.00 0.00 90 1015.2
20260509182018 23 0.0 0.0 0.00 0.00 0.00 90 1015.3
20260509181018 23 0.0 0.0 0.00 0.00 0.00 91 1015.4
20260509180018 23 0.0 0.0 0.00 0.00 0.00 91 1015.5
20260509175018 26 0.0 0.0 0.00 0.00 0.00 91 998.2
20260509174021 23 0.0 0.0 0.00 0.00 0.00 91 1015.7
20260509173018 23 0.0 0.0 0.00 0.00 0.00 91 1015.8
20260509172018 23 0.0 0.0 0.00 0.00 0.00 90 1015.9
20260509171018 23 0.0 0.0 0.00 0.00 0.00 90 1016.0
20260509170014 26 0.0 0.0 0.00 0.00 0.00 90 998.8
20260509165018 26 0.0 0.0 0.00 0.00 0.00 90 998.8
20260509164013 26 0.0 0.0 0.00 0.00 0.00 90 998.9
20260509163013 26 0.0 0.0 0.00 0.00 0.00 90 999.0
20260509162013 26 0.0 0.0 0.00 0.00 0.00 90 999.0
20260509161013 26 0.0 0.0 0.00 0.00 0.00 89 1016.4
20260509160013 23 0.0 0.0 0.00 0.00 0.00 90 1016.4
20260509155013 31 0.0 0.0 0.00 0.00 0.00 90 964.2
20260509154013 23 0.0 0.0 0.00 0.00 0.00 89 1016.4
20260509153014 23 0.0 0.0 0.00 0.00 0.00 89 1016.4
20260509152013 23 0.0 0.0 0.00 0.00 0.00 89 1016.4
20260509151014 23 0.0 0.0 0.00 0.00 0.00 89 1016.4
20260509150013 23 0.0 0.0 0.00 0.00 0.00 89 1016.3
20260509145013 23 0.0 0.0 0.00 0.00 0.00 88 1016.1
20260509144013 23 0.0 0.0 0.00 0.00 0.00 88 1016.1
20260509143013 23 0.0 0.0 0.00 0.00 0.00 88 1016.1
20260509142013 23 0.0 0.0 0.00 0.00 0.00 88 1016.2
20260509141013 23 0.0 0.0 0.00 0.00 0.00 88 1016.2
20260509140013 23 0.0 0.0 0.00 0.00 0.00 88 1016.3
20260509135013 23 0.0 0.0 0.00 0.00 0.00 87 1016.3
20260509134013 23 0.0 0.0 0.00 0.00 0.00 87 1016.4
20260509133013 24 0.0 0.0 0.00 0.00 0.00 85 1016.3
20260509132013 24 0.0 0.0 0.00 0.00 0.00 82 1016.3
20260509131013 23 0.0 0.0 0.00 0.00 0.00 83 1016.2
20260509130013 23 0.0 0.0 0.00 0.00 0.00 84 1015.9
20260509125013 23 0.0 0.0 0.00 0.00 0.00 85 1015.6
20260509124013 23 0.0 0.0 0.00 0.00 0.00 85 1015.4
20260509123013 23 0.0 0.0 0.00 0.00 0.00 84 1015.3
20260509122013 23 0.0 0.0 0.00 0.00 0.00 84 1015.3
20260509121013 24 0.0 0.0 0.00 0.00 0.00 83 1015.3
20260509120653 23 0.0 0.0 0.00 0.00 0.00 84 1015.2
20260509115653 23 0.0 0.0 0.00 0.00 0.00 83 1015.1
20260509114653 23 0.0 0.0 0.00 0.00 0.00 83 1014.9
20260509113653 23 0.0 0.0 0.00 0.00 0.00 83 1014.7
20260509112653 25 0.0 0.0 0.00 0.00 0.00 78 1014.5
20260509111653 25 0.0 0.0 0.00 0.00 0.00 77 1014.3
20260509110654 26 0.0 0.0 0.00 0.00 0.00 78 1014.2
20260509105653 26 0.0 0.0 0.00 0.00 0.00 80 1014.2
20260509104653 29 0.0 0.0 0.00 0.00 0.00 78 996.6
20260509103653 26 0.0 0.0 0.00 0.00 0.00 79 1013.6
20260509102653 27 0.0 0.0 0.00 0.00 0.00 76 1013.4
20260509101653 27 0.0 0.0 0.00 0.00 0.00 73 1013.5
20260509100653 28 0.0 0.0 0.00 0.00 0.00 70 1013.4
20260509095653 28 0.0 0.0 0.00 0.00 0.00 69 1013.3
20260509094653 29 0.0 0.0 0.00 0.00 0.00 67 1013.3
20260509093653 30 0.0 0.0 0.00 0.00 0.00 65 1013.3
20260509092653 30 0.0 0.0 0.00 0.00 0.00 63 1013.3
20260509091653 30 0.0 0.0 0.00 0.00 0.00 61 1013.2
20260509090653 31 0.0 0.0 0.00 0.00 0.00 60 1013.1
20260509085653 32 0.0 0.0 0.00 0.00 0.00 57 1013.0
20260509084653 32 0.0 0.0 0.00 0.00 0.00 56 1013.1
20260509083653 31 0.0 0.0 0.00 0.00 0.00 59 1013.1
20260509082653 32 0.0 0.0 0.00 0.00 0.00 57 1013.0
20260509081653 32 0.0 0.0 0.00 0.00 0.00 55 1012.9
20260509080653 32 0.0 0.0 0.00 0.00 0.00 55 1012.9
20260509075653 32 0.0 0.0 0.00 0.00 0.00 55 1012.9
20260509074653 32 0.0 0.0 0.00 0.00 0.00 55 1012.9
20260509074638 32 0.0 0.0 0.00 0.00 0.00 54 1012.8
20260509074616 32 0.0 0.0 0.00 0.00 0.00 54 1012.8
20260509073159 33 0.0 0.0 0.00 0.00 0.00 50 1012.9
20260509072159 33 0.0 0.0 0.00 0.00 0.00 50 1012.9
20260509071159 33 0.0 0.0 0.00 0.00 0.00 52 1013.0
20260509070158 33 0.0 0.0 0.00 0.00 0.00 53 1013.0
20260509065158 35 0.0 0.0 0.00 0.00 0.00 50 1013.2
20260509064158 35 0.0 0.0 0.00 0.00 0.00 48 1013.3
20260509063158 34 0.0 0.0 0.00 0.00 0.00 51 1013.4
20260509062158 33 0.0 0.0 0.00 0.00 0.00 54 1013.5
20260509061158 34 0.0 0.0 0.00 0.00 0.00 52 1013.5
20260509060158 34 0.0 0.0 0.00 0.00 0.00 51 1013.7
20260509055158 33 0.0 0.0 0.00 0.00 0.00 54 1013.7
20260509054158 33 0.0 0.0 0.00 0.00 0.00 54 1013.9
20260509053158 32 0.0 0.0 0.00 0.00 0.00 56 1014.0
20260509052158 33 0.0 0.0 0.00 0.00 0.00 54 1014.1
20260509051158 34 0.0 0.0 0.00 0.00 0.00 53 1014.2
20260509050158 33 0.0 0.0 0.00 0.00 0.00 53 1014.3
20260509045158 33 0.0 0.0 0.00 0.00 0.00 53 1014.4
20260509044158 33 0.0 0.0 0.00 0.00 0.00 53 1014.5
20260509043200 33 0.0 0.0 0.00 0.00 0.00 51 1014.6
20260509042158 33 0.0 0.0 0.00 0.00 0.00 52 1014.8
20260509041158 33 0.0 0.0 0.00 0.00 0.00 53 1014.9
20260509040158 32 0.0 0.0 0.00 0.00 0.00 55 1015.1
20260509035158 33 0.0 0.0 0.00 0.00 0.00 53 1015.2
20260509034158 33 0.0 0.0 0.00 0.00 0.00 52 1015.4
20260509033158 33 0.0 0.0 0.00 0.00 0.00 52 1015.6
20260509032158 33 0.0 0.0 0.00 0.00 0.00 53 1015.7
20260509031158 33 0.0 0.0 0.00 0.00 0.00 53 1015.9
20260509030158 32 0.0 0.0 0.00 0.00 0.00 55 1016.1
20260509025158 31 0.0 0.0 0.00 0.00 0.00 59 1016.1
20260509024158 30 0.0 0.0 0.00 0.00 0.00 60 1016.1
20260509023231 31 0.0 0.0 0.00 0.00 0.00 59 1016.2
20260509023158 31 0.0 0.0 0.00 0.00 0.00 59 1016.2
20260509022158 31 0.0 0.0 0.00 0.00 0.00 57 1016.2
20260509021158 31 0.0 0.0 0.00 0.00 0.00 59 1016.2
20260509020158 30 0.0 0.0 0.00 0.00 0.00 60 1016.2
20260509015158 30 0.0 0.0 0.00 0.00 0.00 62 1016.2
20260509014158 29 0.0 0.0 0.00 0.00 0.00 63 1016.2
20260509013158 29 0.0 0.0 0.00 0.00 0.00 64 1016.3
20260509012158 29 0.0 0.0 0.00 0.00 0.00 64 1016.3
20260509011158 28 0.0 0.0 0.00 0.00 0.00 67 1016.3
20260509010158 28 0.0 0.0 0.00 0.00 0.00 68 1016.4
20260509005159 27 0.0 0.0 0.00 0.00 0.00 68 1016.4
20260509004158 27 0.0 0.0 0.00 0.00 0.00 69 1016.3
20260509003158 27 0.0 0.0 0.00 0.00 0.00 70 1016.2
20260509002158 26 0.0 0.0 0.00 0.00 0.00 72 1016.1
20260509001158 25 0.0 0.0 0.00 0.00 0.00 75 1016.1
20260509000158 24 0.0 0.0 0.00 0.00 0.00 79 1016.0
20260508235158 24 0.0 0.0 0.00 0.00 0.00 81 1015.8
20260508234158 23 0.0 0.0 0.00 0.00 0.00 82 1015.7
20260508233158 23 0.0 0.0 0.00 0.00 0.00 83 1015.6
20260508232159 22 0.0 0.0 0.00 0.00 0.00 84 1015.5
20260508231158 22 0.0 0.0 0.00 0.00 0.00 84 1015.3
20260508230159 22 0.0 0.0 0.00 0.00 0.00 84 1015.1
20260508225158 22 0.0 0.0 0.00 0.00 0.00 84 1015.0
20260508224157 22 0.0 0.0 0.00 0.00 0.00 85 1014.9
20260508223157 22 0.0 0.0 0.00 0.00 0.00 86 1014.9
20260508222157 22 0.0 0.0 0.00 0.00 0.00 86 1014.8
20260508221157 22 0.0 0.0 0.00 0.00 0.00 85 1014.8
20260508220157 22 0.0 0.0 0.00 0.00 0.00 84 1014.7
20260508215157 23 0.0 0.0 0.00 0.00 0.00 83 1014.7
20260508214157 23 0.0 0.0 0.00 0.00 0.00 83 1014.6
20260508213157 23 0.0 0.0 0.00 0.00 0.00 83 1014.6
20260508212157 23 0.0 0.0 0.00 0.00 0.00 83 1014.5